Wind_Speed
61 62 62 61 62 62 61 60 60 60 60 60 60 59 59 59 59 59 58 58 58 58 58 58 58 59 59 59 60 60 60 60 60 61 61 61 61 61 60 58 56 54 52 50 49 49 49 49 49 49 50 50 49 49 49 49 49 50 50 50 49 49 49 49 50 51 52 52 52 52 51 49 48 47 46 47 48 50 52 55 56 57 57 57 55 52
61 62 62 62 62 63 63 62 62 62 62 62 62 61 61 61 61 60 60 60 59 59 60 60 60 61 61 61 62 62 62 62 62 62 62 62 63 63 62 61 59 56 54 51 49 48 48 48 48 49 49 49 49 49 49 49 49 50 50 50 50 50 50 50 50 50 51 51 52 52 52 51 50 49 48 48 48 49 50 52 54 56 56 56 54 51
61 62 62 63 63 63 64 64 63 63 63 63 63 63 63 63 63 62 62 61 61 61 61 62 62 62 62 63 63 64 64 65 65 65 64 64 63 64 64 63 62 60 56 53 50 48 47 47 47 48 48 48 48 48 48 48 49 49 50 50 50 50 50 51 51 51 51 51 51 52 52 51 50 50 50 51 51 51 51 52 53 55 56 56 54 52
61 62 62 63 63 63 64 64 64 64 64 64 65 65 65 65 65 64 64 63 63 63 63 63 63 64 64 64 64 65 65 66 67 67 67 66 65 64 64 65 64 62 59 55 51 48 47 46 46 46 47 47 47 47 47 48 48 48 49 49 49 50 51 51 51 52 52 52 52 52 52 51 50 50 50 51 52 53 53 52 52 53 55 56 55 53
61 61 62 62 62 63 64 64 64 64 65 65 65 65 65 65 66 66 66 65 65 65 65 65 65 65 65 65 66 66 66 67 68 69 70 69 68 67 65 65 65 64 61 57 53 49 47 45 45 45 46 46 46 46 47 47 47 48 48 48 49 50 50 51 51 52 52 52 52 52 52 51 50 49 49 50 51 53 53 52 51 51 53 55 56 55
60 60 60 61 61 62 63 63 64 64 64 64 65 65 65 65 65 66 66 66 66 66 66 66 66 66 66 66 66 66 67 67 68 69 70 71 71 70 68 66 65 64 62 58 54 50 47 45 44 44 45 46 46 47 47 47 47 47 48 48 49 50 50 51 51 52 52 52 52 52 52 51 50 49 49 49 50 51 52 52 51 49 50 52 54 55
60 59 59 59 59 60 61 61 62 62 62 63 64 64 64 64 64 65 65 65 65 65 66 66 66 66 66 66 66 66 67 67 68 69 70 71 71 71 69 67 65 63 61 59 55 51 47 44 43 43 44 45 46 47 47 47 47 47 47 48 49 50 50 51 51 51 52 52 52 51 51 50 49 49 49 49 50 50 51 51 50 49 48 49 52 54
58 58 57 56 56 56 57 58 59 59 60 61 62 63 63 64 64 64 64 64 64 64 64 65 65 65 65 65 65 65 66 66 67 68 68 69 70 70 69 67 64 62 59 57 54 51 47 44 42 42 43 45 46 47 47 47 47 47 47 48 49 50 51 51 51 51 52 52 51 51 50 49 49 49 49 49 49 50 50 50 50 49 48 48 50 52
56 55 55 53 53 53 55 57 58 58 58 59 59 60 61 62 63 63 63 63 62 62 62 62 63 63 63 63 63 63 64 64 65 65 66 66 67 67 67 65 63 60 57 54 51 48 45 42 41 41 42 44 45 46 47 47 47 48 48 48 49 50 50 51 51 51 51 51 51 50 50 49 49 49 49 49 49 50 50 50 50 50 49 49 50 51
54 54 54 54 53 54 55 57 58 58 57 57 57 58 58 59 60 61 61 61 61 60 59 59 59 59 60 60 59 59 59 60 61 62 62 62 63 63 63 62 60 58 54 51 48 45 42 40 39 39 41 42 44 45 46 46 47 47 47 48 48 49 50 50 51 51 51 51 50 50 49 48 48 48 49 49 50 50 50 50 50 50 50 49 50 51
53 54 54 55 55 55 55 55 56 56 55 55 55 55 56 56 56 56 57 58 57 57 55 55 54 54 54 54 54 54 53 54 55 56 56 57 57 58 58 57 56 54 52 49 46 43 40 38 37 38 39 40 42 43 44 45 46 46 46 46 47 47 48 49 50 50 50 50 50 49 49 48 47 47 48 49 49 50 49 49 49 49 49 49 49 49
53 53 54 54 54 54 53 53 53 53 52 52 53 53 53 53 53 52 53 53 53 52 50 50 49 48 47 46 46 47 47 47 48 49 50 50 51 51 51 51 51 50 48 45 43 40 39 37 37 37 37 39 40 41 42 43 44 44 45 45 45 46 47 48 49 50 50 49 49 48 48 47 46 46 47 47 48 49 49 48 48 48 48 48 48 47
52 52 52 52 52 51 51 50 50 50 50 50 50 51 52 51 50 49 48 47 46 45 43 42 42 41 40 40 39 40 40 41 42 43 43 44 45 45 45 45 45 44 43 41 40 39 38 37 36 36 36 37 38 40 41 42 42 43 43 44 44 45 46 47 48 49 49 49 48 47 47 46 45 45 45 46 46 47 47 47 46 46 46 46 46 46
50 50 50 50 49 48 47 47 47 47 48 49 49 50 50 49 46 44 42 41 39 37 37 37 37 37 37 36 36 37 38 38 39 39 40 40 40 40 40 40 40 40 38 37 36 36 35 34 34 34 35 35 37 38 39 40 41 42 43 44 44 45 46 47 48 49 49 48 47 46 45 45 44 44 43 44 44 45 45 45 44 44 43 44 44 44
49 48 48 48 47 45 45 44 45 47 49 49 49 49 48 45 42 38 36 35 34 33 34 35 36 37 36 36 36 37 37 38 38 39 39 39 38 38 38 38 38 38 36 35 34 34 34 33 33 33 34 34 35 36 38 39 40 42 43 44 45 45 46 47 48 49 49 48 47 45 44 44 43 42 42 42 42 43 43 43 43 42 42 42 43 43
47 47 47 46 45 44 43 44 45 48 50 50 49 47 45 41 37 33 32 32 33 33 34 36 37 38 38 37 36 36 36 37 37 38 38 38 38 38 37 38 38 37 35 34 33 33 33 33 33 32 33 33 34 36 37 39 40 41 42 44 45 46 47 47 48 49 48 47 46 45 44 43 42 41 41 41 41 41 42 42 42 41 41 41 42 42
46 45 45 44 43 43 43 44 47 50 50 49 47 44 40 36 33 30 30 32 34 35 36 37 38 39 40 39 37 36 35 36 38 39 40 41 40 39 38 38 39 38 35 34 32 32 32 32 31 31 31 32 34 35 37 38 39 41 42 43 44 45 46 47 48 48 47 46 45 44 43 42 41 41 40 40 40 40 41 41 41 41 41 41 42 43
44 43 43 42 42 43 44 47 50 50 48 46 43 39 35 31 29 30 31 34 36 37 38 39 40 41 42 41 39 37 37 40 42 44 44 44 42 39 37 38 39 38 36 33 31 30 30 30 30 30 30 31 33 34 36 37 39 40 42 43 43 44 45 46 46 46 45 45 44 43 42 41 41 40 39 39 39 39 40 40 41 41 42 43 43 44
43 42 41 41 43 45 47 49 49 48 45 42 38 35 32 30 30 32 36 37 38 39 41 42 43 44 44 44 42 39 38 42 45 46 47 46 43 40 37 37 38 37 35 33 30 29 28 29 29 28 29 30 31 33 34 36 38 39 41 42 43 43 43 44 44 44 43 43 42 42 41 40 40 39 39 39 39 39 39 40 40 41 42 43 45 45
42 42 42 43 45 47 49 48 46 43 40 37 34 32 31 31 33 37 40 42 42 43 44 44 45 45 44 44 42 41 40 42 45 47 47 46 44 40 37 37 37 37 35 33 30 28 27 27 27 27 28 29 30 31 33 35 36 38 40 41 42 42 42 42 42 42 41 41 40 40 40 39 39 39 38 38 38 39 39 39 40 41 42 44 45 46
42 43 44 45 46 47 47 45 42 38 35 33 32 31 31 33 36 39 42 43 44 44 43 43 44 44 44 44 44 42 41 43 45 46 47 46 44 41 38 37 37 36 35 32 29 27 27 26 26 27 27 28 29 31 32 34 36 37 39 40 41 42 42 41 41 41 40 40 39 39 39 39 38 38 38 38 38 39 39 39 40 40 42 43 44 46
43 44 44 44 44 45 44 42 39 35 33 32 32 33 33 35 37 39 41 42 43 43 43 43 44 44 44 45 45 44 42 43 44 45 46 46 45 42 38 36 35 35 33 31 29 27 26 25 25 25 26 27 29 30 31 33 35 36 38 39 40 41 41 41 41 40 40 39 39 38 38 38 38 38 38 38 38 38 38 38 39 39 40 42 43 45
43 44 44 44 43 42 41 39 36 34 33 33 33 35 35 36 38 39 40 41 42 43 43 44 44 44 45 45 45 43 42 42 42 43 43 45 45 43 39 36 34 33 33 31 30 28 26 25 24 24 24 25 27 28 30 31 33 35 36 38 39 40 40 40 40 40 39 39 38 38 38 38 38 38 38 38 38 37 37 37 37 38 39 40 41 43
42 43 43 42 41 40 38 36 35 34 34 35 35 36 36 36 37 38 38 40 42 43 44 45 45 45 44 43 43 42 41 41 41 42 44 45 45 42 38 37 37 36 35 32 31 30 28 26 24 23 23 23 24 25 27 29 31 33 35 36 37 38 39 39 39 39 38 38 37 37 37 38 38 38 38 38 38 37 36 36 35 36 36 37 38 40
40 40 41 40 39 38 36 35 34 34 35 35 35 35 35 35 35 37 39 40 41 42 42 43 44 44 43 43 42 41 40 40 42 44 45 45 44 41 37 36 36 36 35 32 31 30 29 26 23 22 21 21 21 23 25 27 29 31 33 34 35 36 37 37 37 37 37 36 36 36 37 38 38 39 38 38 37 36 35 34 34 34 34 34 35 36
37 38 38 38 37 36 35 34 34 34 33 33 33 32 32 32 33 35 37 38 39 39 40 42 43 43 43 43 42 41 40 40 42 43 43 43 42 39 35 34 35 35 34 32 30 29 28 26 23 21 20 20 20 21 23 25 27 29 31 32 33 34 34 35 35 35 35 34 35 35 36 37 38 38 38 37 36 35 34 34 33 32 31 31 32 33
35 36 36 36 35 34 33 32 31 30 30 30 30 29 29 29 31 33 35 36 37 38 40 41 43 43 43 43 42 42 41 41 41 41 41 40 39 37 34 32 32 33 33 31 30 28 27 26 23 21 20 20 20 20 22 23 25 27 28 30 31 32 32 32 33 33 33 33 34 35 36 36 37 37 36 36 35 34 33 32 31 31 30 31 31 31
34 34 34 33 33 32 31 30 29 28 27 27 26 26 26 28 30 32 34 35 36 38 39 41 42 43 44 44 43 42 41 41 40 39 38 37 36 34 32 30 30 31 31 30 29 28 26 25 23 22 21 20 20 20 21 22 24 25 27 28 29 29 30 30 31 31 31 32 33 33 34 35 35 35 34 34 33 33 32 31 31 31 31 32 32 31
32 31 31 30 30 29 28 27 26 26 25 25 24 24 25 27 29 32 34 35 36 38 39 41 42 43 44 44 43 42 40 39 37 36 35 34 33 31 30 29 29 29 29 29 28 27 25 24 23 22 21 20 19 20 20 22 23 25 26 27 27 28 28 29 29 29 30 31 31 32 33 33 32 32 32 31 32 32 31 31 31 31 33 33 32 31
30 29 29 28 27 26 26 25 24 24 23 23 24 25 26 27 29 31 33 34 36 37 39 40 41 42 43 43 42 41 38 36 34 33 32 32 31 29 28 28 28 27 27 28 28 27 25 23 22 21 20 19 19 19 20 21 22 24 25 26 26 27 27 27 28 29 29 30 30 31 31 30 30 29 29 30 31 31 31 31 31 32 33 34 32 29
29 28 28 27 26 25 24 24 23 23 23 24 25 26 27 28 30 31 33 34 36 37 39 40 41 41 41 41 41 40 37 33 31 31 31 30 29 28 27 27 26 26 26 26 27 26 25 23 21 20 19 18 18 18 19 20 22 23 24 25 25 26 26 27 27 28 28 28 29 29 28 28 28 28 28 29 30 31 31 31 31 32 33 32 29 27
29 28 27 26 25 25 24 24 24 24 25 25 26 26 27 28 30 31 33 34 35 37 38 40 40 40 40 39 39 38 36 33 30 29 29 29 29 27 27 27 26 25 25 25 25 26 25 24 22 19 18 18 17 17 18 19 21 22 23 24 24 25 25 25 26 26 26 26 26 26 26 26 26 27 28 29 30 30 30 30 30 31 31 30 27 25
29 28 27 26 25 25 24 24 25 25 26 26 27 27 28 29 30 31 32 34 35 37 38 39 39 39 39 38 37 36 35 32 30 29 28 28 28 27 27 26 26 25 24 24 24 24 25 24 22 20 18 17 17 17 17 18 19 20 21 21 22 23 23 23 22 22 21 22 23 24 25 26 27 28 28 29 29 29 29 29 29 29 29 27 24 22
29 28 27 26 26 25 25 25 26 26 26 27 27 28 29 29 30 31 32 34 35 37 38 38 39 39 38 38 37 35 34 32 30 28 28 27 27 27 27 26 26 25 25 24 24 24 24 23 22 21 19 18 17 16 17 17 18 18 19 19 19 19 19 18 18 17 18 19 20 22 24 26 27 28 28 28 28 27 27 27 27 27 26 24 21 18
29 28 27 27 26 26 26 26 26 26 27 27 28 28 29 30 31 32 33 35 36 37 38 39 39 38 38 38 37 36 34 31 29 28 28 27 27 27 26 26 26 25 25 25 24 24 24 23 22 21 20 18 17 16 16 16 17 17 16 16 16 16 16 16 16 16 17 18 20 22 24 26 27 28 27 26 26 25 24 24 23 22 21 19 18 18
29 28 28 27 27 27 27 27 27 27 28 28 29 30 31 32 32 34 35 36 37 38 39 38 38 38 37 37 37 36 34 32 30 29 28 27 26 26 26 26 25 25 25 24 24 24 23 23 22 21 20 18 17 15 15 15 16 15 15 15 15 15 15 16 17 17 18 19 20 21 23 24 25 26 25 24 23 22 21 20 19 19 19 20 22 24
29 28 28 27 27 28 28 28 28 29 29 30 30 31 32 33 34 36 37 38 38 39 39 38 37 37 36 36 35 35 34 32 31 29 27 26 26 25 25 25 24 24 24 24 24 23 23 22 21 20 19 18 16 14 13 14 15 15 15 15 15 15 16 17 18 19 19 20 20 20 21 21 22 22 22 22 21 20 20 19 20 21 23 25 28 30
29 28 28 28 28 28 29 29 30 30 31 32 32 33 34 35 36 38 39 39 39 39 39 38 37 36 35 34 34 33 33 32 30 28 27 25 25 25 25 24 24 23 23 23 23 23 23 22 21 20 18 16 15 13 13 14 14 15 16 16 16 16 17 17 18 19 20 20 19 19 18 18 18 18 19 20 20 21 21 22 23 25 27 29 31 32
29 29 28 29 29 29 30 31 31 32 32 33 34 35 36 37 38 39 40 40 40 39 39 38 37 35 34 33 32 31 31 30 29 27 26 24 24 24 24 24 23 22 22 22 22 22 22 21 20 19 17 16 14 13 13 14 15 16 16 17 17 17 17 18 19 19 20 20 19 18 17 17 16 17 18 19 20 21 22 24 25 27 28 30 31 32
29 29 29 30 30 30 31 31 32 33 33 34 35 36 38 39 40 40 40 40 39 39 38 37 36 34 33 31 30 29 28 28 27 26 24 23 23 23 23 23 22 22 21 21 21 21 21 20 20 19 17 16 15 14 14 16 17 18 18 18 18 18 18 18 19 19 20 20 19 18 17 16 17 17 19 20 21 22 23 24 25 26 28 29 29 30
30 30 30 31 31 31 32 32 33 34 35 36 37 38 40 40 41 41 41 40 39 38 36 35 34 33 31 30 28 27 26 25 25 24 23 22 22 22 22 22 21 21 20 20 20 20 20 19 19 18 17 16 15 15 16 17 19 19 19 19 19 19 19 19 19 20 20 20 19 18 17 18 18 19 20 21 22 23 24 24 25 26 27 27 27 28
31 32 32 32 32 33 33 34 34 35 37 38 39 40 40 40 40 40 39 39 37 36 35 33 32 31 29 27 26 25 24 23 23 22 21 21 21 21 20 20 20 20 19 19 19 19 19 19 19 18 17 17 17 17 18 19 20 21 21 20 20 19 19 20 20 21 21 21 20 19 19 20 20 21 22 23 24 24 25 25 25 25 25 26 26 26
32 33 33 33 34 34 35 36 37 38 39 39 40 39 39 39 38 38 37 37 36 34 33 31 30 29 27 25 23 22 21 21 20 20 19 19 19 18 18 18 18 18 18 18 18 18 18 19 19 18 18 18 18 19 20 21 21 22 21 21 20 21 21 22 22 23 22 22 21 20 20 21 22 23 24 25 25 25 25 25 25 25 24 24 24 24
33 34 34 35 36 37 38 38 39 39 40 39 39 38 37 36 35 35 34 34 33 32 30 28 27 25 23 22 20 19 19 18 18 17 17 17 16 16 16 16 16 16 16 17 17 18 18 19 19 19 19 19 19 19 20 21 22 22 21 21 21 22 22 23 24 24 24 23 22 21 21 22 23 24 24 25 25 25 24 24 24 24 23 23 22 22
34 35 36 37 38 39 39 40 40 40 39 38 37 35 34 33 32 31 31 30 29 28 26 24 22 20 19 17 16 15 15 15 15 14 14 14 14 15 15 15 15 16 15 16 16 17 18 18 18 18 18 19 19 19 20 21 21 22 21 21 21 22 22 23 23 24 23 23 22 22 22 22 23 23 24 24 24 23 23 23 23 23 22 22 22 22
36 37 38 39 40 40 40 40 40 39 38 36 34 32 30 29 29 28 27 27 25 23 21 20 18 16 15 14 13 13 13 14 14 13 13 13 13 13 14 14 15 15 15 15 15 15 15 16 16 16 17 17 18 18 19 20 21 21 22 21 22 22 22 23 23 23 22 22 21 21 21 22 22 23 23 23 23 23 22 22 22 23 23 23 23 24
38 39 39 40 40 40 39 39 38 37 35 33 31 29 27 26 25 24 24 22 21 18 17 15 14 14 14 15 15 15 15 15 15 14 13 13 13 13 13 13 13 13 13 13 13 12 12 12 12 13 14 15 16 17 18 19 20 21 21 21 22 22 23 23 23 23 21 21 20 20 21 21 22 22 22 22 22 22 22 23 23 23 24 25 25 26
39 39 39 39 39 38 38 37 36 34 33 31 28 26 24 23 22 21 20 19 17 15 14 14 14 15 16 16 16 16 16 16 15 14 13 12 11 11 11 11 10 9 9 8 8 8 8 8 9 10 11 12 14 15 16 17 19 20 20 21 22 23 23 23 23 22 21 20 19 19 20 20 20 21 21 21 22 22 23 23 24 25 26 26 27 28
39 38 38 37 37 36 35 34 33 32 30 28 26 24 22 20 19 18 17 16 15 15 15 16 16 16 16 15 15 15 15 14 13 12 10 9 8 7 6 5 5 4 4 4 4 4 5 6 7 8 9 11 12 14 15 17 18 19 21 21 22 23 23 23 23 22 21 20 19 19 19 19 20 20 20 20 21 22 23 24 25 25 26 27 28 28
37 36 36 35 34 34 33 32 30 28 27 25 23 22 20 18 16 15 15 15 15 16 17 17 17 16 14 13 13 12 11 9 8 7 5 4 3 4 5 5 6 6 7 7 8 8 8 8 9 9 10 11 13 14 16 18 20 21 23 24 24 24 24 23 22 22 21 20 19 19 19 19 19 19 20 20 21 22 23 24 25 26 26 27 27 27
35 34 33 32 32 31 30 29 27 25 24 23 22 20 18 17 16 15 15 16 16 17 17 17 16 15 12 11 9 8 6 4 3 3 4 6 7 8 9 10 10 10 11 11 11 11 11 10 10 11 12 13 15 17 19 21 22 24 25 26 25 25 24 23 23 22 21 21 20 20 20 20 20 20 20 21 22 22 24 24 25 25 26 26 26 26
Wind_Direction
286 286 286 285 285 285 283 283 283 283 282 281 281 281 280 280 280 280 280 281 281 281 281 280 280 280 280 279 279 279 279 278 278 278 278 279 279 279 279 278 277 276 274 272 270 269 268 267 267 268 268 268 268 267 266 265 264 264 263 262 261 261 260 259 259 260 261 262 262 262 261 260 260 258 257 255 253 252 251 251 251 249 247 245 243 242
286 286 286 286 286 285 284 283 283 283 283 282 281 281 280 280 280 279 279 279 280 280 280 279 279 279 279 279 279 279 279 279 278 278 277 277 277 278 278 279 278 277 276 274 271 269 268 266 265 265 265 265 265 266 266 265 264 264 263 263 262 261 260 258 258 258 259 260 261 261 261 260 260 259 259 258 256 255 254 252 250 248 245 243 242 241
288 288 287 286 286 286 286 284 284 284 284 283 283 282 281 281 280 280 280 279 279 279 279 278 278 278 278 277 278 278 278 278 278 277 277 276 276 276 277 277 278 278 277 276 273 271 268 266 264 262 262 261 262 262 264 264 264 264 264 263 262 262 260 259 258 257 257 257 258 259 260 259 259 258 258 258 257 257 256 254 250 246 243 241 240 239
290 290 289 288 287 287 286 286 285 285 285 284 284 283 283 282 282 281 280 280 279 279 278 278 277 277 277 276 276 276 276 277 277 277 276 276 275 275 275 276 276 277 278 277 275 272 269 266 263 261 259 258 258 259 260 261 262 263 263 263 262 262 261 260 258 257 256 255 256 257 258 258 258 258 257 257 257 257 257 256 252 246 242 240 239 238
292 292 291 291 290 289 287 287 287 287 286 285 285 284 284 283 282 282 281 280 279 279 278 278 277 277 276 276 275 274 274 274 275 275 276 276 276 275 275 275 275 276 277 278 277 274 271 267 263 260 258 256 256 255 256 258 259 260 261 261 261 261 260 259 259 257 256 255 255 255 256 257 257 257 257 257 256 257 257 257 254 249 242 238 237 237
294 294 294 294 293 292 290 289 289 288 288 287 286 285 285 284 284 283 282 281 280 280 279 278 278 277 276 276 275 274 274 273 273 273 274 275 276 276 276 276 275 276 277 277 277 275 273 269 264 260 257 255 254 253 254 254 256 257 258 259 260 259 259 259 258 258 257 256 255 255 255 256 256 256 256 256 256 256 256 257 256 252 245 239 236 236
297 296 296 296 296 295 294 293 292 291 291 290 289 288 287 286 285 285 284 283 282 282 281 279 278 278 277 277 276 275 275 274 273 273 273 273 275 276 277 277 277 277 277 277 277 277 274 270 265 261 257 255 254 253 252 252 253 254 256 257 258 258 259 259 258 258 257 257 256 255 255 255 255 255 255 255 255 255 255 256 256 255 250 243 238 235
300 299 299 299 298 297 296 295 294 294 294 294 293 291 290 288 287 286 286 285 285 285 284 283 281 280 279 278 278 277 276 276 275 274 273 273 274 275 277 278 279 279 279 279 279 278 276 271 266 261 258 255 254 253 252 251 252 252 253 255 256 257 258 258 258 258 258 258 257 256 255 255 254 254 255 255 255 254 254 255 255 256 254 248 241 236
302 302 301 300 299 298 297 295 294 294 295 295 295 294 293 291 290 288 288 288 287 287 287 286 285 283 281 280 280 279 278 278 277 276 275 275 275 275 276 278 279 280 280 280 279 278 276 272 267 262 258 255 254 253 252 251 251 251 252 253 254 256 257 258 258 259 259 259 258 257 256 255 254 254 254 254 254 254 254 254 254 255 255 252 245 239
301 300 300 298 297 297 297 296 295 295 295 296 296 295 295 295 294 292 291 290 289 288 289 288 288 286 284 282 282 281 281 280 279 278 278 277 277 277 277 278 279 280 280 279 278 277 275 271 267 262 258 255 254 253 252 252 251 251 251 251 253 254 256 257 258 258 259 259 259 258 257 255 254 253 253 254 254 254 254 254 254 255 256 254 249 242
298 298 298 298 297 296 296 296 296 296 296 296 295 295 294 295 296 296 295 292 291 290 289 289 289 289 288 286 285 284 284 283 282 281 280 280 279 279 279 279 279 279 279 279 278 276 274 270 266 261 257 255 254 253 252 252 251 251 251 251 252 253 254 256 257 257 258 258 259 258 257 256 254 253 253 253 254 254 255 255 255 255 256 256 253 246
298 298 298 298 297 297 297 297 296 296 296 296 296 295 294 294 295 297 297 295 294 293 292 291 291 290 290 290 289 288 287 287 286 285 284 282 281 281 281 280 280 279 279 278 277 275 272 268 264 259 256 254 253 253 252 252 252 251 251 251 251 252 253 254 255 256 257 257 258 258 257 256 254 253 252 252 253 254 254 255 255 256 256 256 255 251
299 298 298 298 297 297 297 298 298 298 297 297 296 296 296 296 296 297 297 297 297 297 297 296 295 294 293 294 294 294 293 292 290 289 287 285 284 283 282 281 280 279 278 277 275 272 269 265 261 257 255 253 253 252 252 252 252 251 250 250 250 250 251 252 253 254 255 255 256 257 256 256 254 253 252 252 252 253 254 255 255 256 256 256 255 254
299 299 298 298 298 298 299 300 301 300 299 297 297 297 297 298 299 299 299 299 300 301 303 302 301 299 298 298 298 298 297 296 294 292 290 288 286 284 283 281 279 278 276 274 271 267 265 262 259 257 255 254 253 252 251 251 250 250 249 249 248 248 249 249 250 251 253 254 255 255 255 255 254 253 251 251 251 252 252 253 254 254 255 255 255 254
300 300 300 300 300 302 303 304 304 301 298 297 297 298 299 300 301 301 302 303 305 306 307 306 304 302 301 301 300 300 298 298 297 295 293 291 288 286 283 281 278 276 274 271 268 266 264 261 258 256 255 253 252 251 250 249 249 248 247 247 246 246 247 247 248 249 251 252 253 254 255 255 254 253 251 250 250 250 251 251 252 252 252 253 254 254
300 301 301 303 305 306 307 305 301 298 296 297 298 299 300 301 302 303 304 306 307 308 307 306 304 302 301 300 299 297 295 295 295 293 292 290 288 286 284 281 279 276 272 269 267 265 263 261 258 256 253 251 249 248 247 247 246 246 245 245 244 244 244 245 246 247 249 250 252 253 253 254 254 253 252 250 249 249 249 249 249 249 249 250 251 252
301 302 304 306 307 306 303 299 295 294 295 297 298 299 299 300 301 303 305 306 307 306 304 302 300 298 296 294 293 292 292 292 292 291 289 288 285 284 284 283 281 278 273 269 265 263 262 260 257 254 251 248 245 244 243 243 243 243 243 243 243 242 243 243 244 245 247 248 250 251 252 253 253 253 252 251 249 248 248 247 247 247 246 247 248 249
302 304 305 306 304 301 296 293 292 294 296 298 298 298 298 298 300 303 305 306 305 302 299 296 293 291 289 288 288 288 290 291 291 291 290 288 287 285 285 284 283 280 276 271 267 263 261 259 256 253 249 245 242 241 241 241 241 241 241 242 242 242 242 242 243 244 245 247 248 249 250 251 252 252 252 250 249 248 247 247 246 246 245 245 246 247
303 304 303 301 297 293 291 291 293 296 298 299 298 298 296 297 301 305 307 304 300 295 291 289 286 286 286 286 287 289 291 291 292 292 291 291 290 289 287 286 284 282 280 275 269 264 260 257 254 251 247 244 241 240 240 240 240 240 240 240 240 241 241 242 242 243 244 245 247 248 249 250 251 251 251 250 249 248 248 247 247 247 246 245 245 245
301 299 296 294 291 290 291 293 296 298 300 300 298 297 296 299 303 305 303 299 293 288 286 285 285 285 286 286 287 289 291 292 292 292 292 291 291 290 289 288 287 285 282 278 272 266 261 256 252 248 245 243 242 242 241 241 240 239 238 238 239 240 241 241 242 243 244 245 246 247 248 249 249 249 249 249 248 248 248 248 248 248 247 246 245 244
296 294 292 291 291 292 294 297 299 301 301 300 299 297 296 297 298 297 294 291 288 286 285 285 285 286 286 287 289 291 292 293 293 292 292 292 291 290 289 289 288 287 284 280 274 268 263 257 251 247 244 243 243 243 242 241 239 238 237 237 238 238 240 241 242 243 244 245 246 247 248 248 248 248 248 247 247 248 248 249 249 249 249 248 246 245
294 293 293 294 295 296 298 300 302 303 302 301 298 295 293 291 290 289 288 288 287 287 286 285 285 286 287 288 290 292 293 293 293 294 294 294 293 291 290 289 289 288 285 281 277 272 266 259 252 247 244 242 242 241 241 240 239 237 237 236 236 237 238 240 241 243 244 246 247 247 248 248 248 248 247 247 247 247 248 249 250 250 250 249 247 245
297 297 297 298 298 298 300 302 303 303 302 299 296 292 289 288 288 288 289 289 288 287 286 286 286 287 288 289 290 291 292 293 294 294 294 292 291 290 290 289 287 284 282 281 280 278 273 266 258 251 246 243 241 240 239 239 238 237 236 236 236 237 238 239 241 242 244 246 247 248 248 249 249 249 248 248 247 247 248 249 251 251 251 249 247 245
299 299 299 298 298 298 300 301 302 302 299 296 293 291 290 289 288 289 289 288 287 287 287 288 288 289 289 290 290 291 292 293 293 292 290 288 288 288 289 287 284 281 281 281 282 281 278 272 264 256 250 245 242 240 239 238 237 236 236 236 236 237 238 239 241 242 244 245 247 248 249 249 250 250 250 249 249 249 249 251 252 252 251 249 246 243
298 298 297 296 296 296 298 298 298 295 293 292 291 290 289 289 289 288 287 286 286 287 289 290 291 291 291 292 292 293 293 293 293 291 289 288 288 288 287 285 284 282 282 281 281 280 278 273 266 259 253 249 246 244 241 239 237 236 236 236 237 237 238 240 241 243 244 245 247 247 248 249 250 250 251 250 250 251 251 252 253 253 251 247 244 240
297 296 295 294 294 294 294 293 291 289 289 289 289 289 289 289 289 288 287 287 288 290 292 293 293 293 293 294 294 295 295 295 293 292 291 291 289 288 286 285 283 282 282 281 279 278 276 272 267 262 259 255 252 249 244 241 238 237 237 237 238 238 239 240 242 243 244 245 246 247 248 249 250 250 251 251 251 252 253 253 253 252 248 243 238 234
297 295 294 293 293 292 292 290 289 289 289 289 289 289 290 290 289 288 288 289 291 292 293 293 294 294 295 295 296 297 297 296 295 294 293 292 290 288 286 284 283 282 281 279 278 277 275 272 269 265 263 260 257 252 247 243 240 239 238 238 239 240 241 242 242 243 244 244 245 246 247 248 249 250 251 251 251 252 252 252 251 248 242 235 229 225
299 297 296 295 294 293 293 292 292 291 291 290 291 291 291 290 290 290 290 291 292 293 294 294 294 295 296 296 297 298 298 297 296 295 295 293 290 288 286 284 282 281 280 279 278 276 275 273 270 268 265 261 257 252 248 245 242 241 240 240 240 241 242 243 243 243 244 244 244 245 246 247 248 249 250 250 250 250 249 248 246 242 235 227 221 217
303 301 300 299 298 297 296 295 294 293 293 293 293 294 293 292 291 291 291 293 294 294 294 295 295 296 297 298 298 299 298 298 297 296 295 292 290 288 286 283 281 280 280 280 279 277 275 273 270 268 265 261 256 252 249 246 243 242 241 241 241 242 243 243 243 243 243 243 243 244 245 246 247 248 248 247 247 246 245 244 241 236 230 222 216 213
307 305 304 303 302 301 299 298 297 296 297 297 297 297 295 294 293 293 294 295 296 296 296 297 297 298 298 299 299 299 299 299 298 297 295 292 289 286 284 282 280 280 280 281 281 279 276 273 269 267 264 260 256 252 249 246 244 243 242 241 241 241 241 241 241 241 241 242 242 243 244 245 245 245 244 243 243 242 241 240 237 232 225 217 212 212
310 309 308 308 307 306 304 303 302 302 302 301 300 298 297 296 295 295 296 297 298 298 298 298 299 299 300 300 300 300 300 300 299 297 294 291 288 285 282 280 279 278 278 279 280 280 278 275 270 266 264 261 257 252 249 246 244 243 242 241 240 239 238 238 237 237 238 239 240 242 242 243 242 241 239 238 238 238 238 237 234 229 221 213 209 212
313 312 312 311 311 310 309 309 308 307 306 303 301 300 299 297 297 297 298 299 299 299 300 300 300 300 301 300 300 300 301 301 299 297 293 289 286 283 281 279 277 276 275 276 277 277 278 277 274 269 266 262 258 253 249 246 244 242 241 240 239 238 236 235 234 234 234 236 237 238 238 238 237 235 234 234 234 235 235 234 230 224 215 207 205 210
314 314 314 313 313 313 313 312 311 309 306 304 303 301 300 299 299 299 300 300 301 301 301 301 301 302 302 302 301 301 301 301 299 296 292 288 285 282 279 277 276 275 273 273 273 275 275 276 275 273 269 264 258 254 251 248 245 242 241 240 238 237 236 235 234 234 234 234 234 234 233 232 231 230 230 230 231 231 231 229 223 216 207 200 199 205
315 315 315 315 314 314 314 313 311 309 307 305 304 303 302 302 302 302 303 303 303 303 303 303 303 303 303 303 302 302 302 300 298 295 291 287 284 281 278 276 275 273 272 271 271 271 272 274 274 273 269 264 258 254 252 250 247 244 242 241 240 240 240 241 241 240 239 237 234 231 229 227 226 225 226 227 228 228 225 220 214 207 201 197 198 205
315 315 315 315 315 315 314 313 311 309 308 307 307 306 306 306 306 306 306 306 305 305 304 304 304 303 303 302 301 301 300 299 297 294 291 287 284 281 278 276 274 272 271 270 269 269 269 270 271 270 268 263 258 254 252 251 248 246 244 243 243 245 246 247 248 246 243 240 235 230 227 225 223 223 224 225 225 223 219 212 207 203 203 206 212 221
315 315 315 316 316 315 314 314 313 312 311 311 311 311 311 310 310 309 308 307 306 305 305 304 303 303 302 300 299 298 297 297 295 293 291 288 285 281 278 275 273 271 269 268 268 268 268 268 268 267 265 261 257 253 252 251 249 247 245 245 246 247 248 247 246 245 243 239 235 231 228 225 223 222 222 222 221 217 212 206 204 206 211 216 220 223
315 315 316 316 316 316 316 315 315 315 315 315 314 314 313 312 311 310 309 307 306 305 304 303 302 301 299 298 296 295 295 294 293 292 290 288 284 281 277 274 271 269 267 267 267 267 267 267 266 264 262 260 256 253 251 249 248 245 243 243 244 245 245 244 243 241 240 237 235 232 230 228 225 222 220 218 215 210 205 203 205 208 211 213 214 214
315 315 317 317 318 318 318 318 318 318 318 317 316 315 314 312 311 310 308 307 306 305 304 303 301 300 298 296 294 293 293 292 291 290 288 285 282 279 275 272 269 267 266 265 266 266 267 266 265 263 260 257 253 251 249 248 246 244 241 240 241 241 240 240 239 239 238 236 235 234 233 230 227 222 218 214 209 205 201 202 204 206 208 209 209 209
316 317 318 320 320 320 320 320 320 319 318 317 315 314 313 312 310 309 308 307 305 304 303 302 301 300 298 296 293 292 290 289 288 287 285 282 278 275 272 270 267 265 264 264 264 264 264 264 263 262 259 255 251 248 246 244 243 241 238 237 237 237 237 237 237 237 237 236 236 235 233 230 225 220 215 211 208 204 202 203 204 206 207 208 208 209
318 319 320 321 322 321 321 320 319 318 316 315 314 313 312 311 310 309 307 306 305 304 303 302 301 300 298 296 294 291 288 286 285 283 280 277 274 271 269 267 265 263 262 261 261 261 261 261 260 259 256 253 250 246 243 241 239 237 235 232 231 231 233 234 235 236 236 237 237 235 232 227 221 216 212 210 207 206 206 207 207 208 209 210 211 211
321 321 322 322 322 321 320 319 318 317 315 314 313 313 312 311 310 308 306 305 304 303 302 301 301 299 298 295 292 289 286 284 282 279 277 274 271 268 265 264 263 262 259 258 257 257 257 257 256 255 253 251 248 244 240 237 234 232 231 228 226 226 228 230 232 233 234 235 235 234 230 225 220 216 212 209 208 208 209 210 211 211 212 212 214 215
322 323 323 323 322 321 320 319 318 316 315 315 314 314 313 312 310 308 306 305 304 303 303 302 301 299 297 294 290 287 284 282 280 278 275 273 270 267 264 261 260 258 257 256 255 254 254 254 253 253 251 250 247 243 238 234 231 229 227 224 221 220 222 225 228 229 230 230 231 230 227 224 221 217 213 210 209 210 211 211 212 213 213 214 215 215
323 323 323 323 322 321 320 319 318 317 316 315 315 314 313 311 310 308 306 305 304 304 304 303 301 299 295 292 289 286 284 282 280 278 276 274 271 268 265 262 259 256 255 256 256 255 253 252 252 251 249 247 244 240 235 231 229 227 225 221 216 212 212 217 222 225 226 226 226 226 224 223 220 217 214 212 211 211 212 212 212 212 212 213 213 213
324 324 324 323 323 322 321 320 319 318 317 316 316 314 313 311 309 307 305 304 304 304 304 303 301 298 293 288 286 287 286 284 283 282 280 278 275 272 269 266 264 261 258 258 259 258 256 254 251 248 244 241 238 235 232 230 228 226 223 219 214 211 210 214 218 221 221 222 223 223 222 222 220 218 216 213 211 211 210 210 210 209 208 207 206 205
325 325 325 325 324 323 322 321 320 319 318 317 316 315 314 311 309 307 305 304 303 303 303 302 300 297 294 290 290 292 294 292 291 290 288 284 280 277 274 273 271 270 268 265 262 259 256 253 249 245 241 238 236 233 231 229 228 226 222 218 214 211 210 213 215 217 218 218 219 219 220 219 219 217 215 212 210 208 206 205 204 202 200 198 196 194
327 327 327 326 325 324 323 322 321 320 319 319 318 317 315 312 310 307 306 305 304 304 304 304 304 304 306 306 307 310 313 311 307 303 300 296 291 284 279 276 273 272 271 269 266 261 256 251 246 243 240 238 236 234 231 229 228 226 222 218 212 206 204 206 208 211 213 214 215 215 215 215 214 213 210 207 204 202 199 198 196 194 191 188 186 184
329 329 327 326 325 324 323 322 322 321 321 320 320 319 317 315 312 309 308 307 307 308 309 312 318 323 323 323 324 325 323 321 317 311 304 301 297 290 282 276 272 268 266 264 263 260 256 251 245 241 238 236 233 231 229 227 225 222 218 212 205 199 195 197 199 202 204 207 209 210 210 209 208 205 202 199 197 195 192 190 188 186 183 181 179 178
330 329 327 326 325 325 324 324 323 322 322 322 322 322 321 318 316 314 313 313 315 318 324 332 338 337 333 330 327 324 320 316 311 304 297 291 286 281 275 270 265 260 256 252 249 246 243 238 234 229 226 223 221 220 220 218 216 212 206 200 193 188 185 187 189 191 193 197 199 201 201 200 199 196 194 191 189 187 185 183 181 179 178 177 176 176
330 329 328 327 327 326 326 325 324 324 324 325 326 326 325 323 322 322 323 324 328 334 340 344 343 337 330 324 318 314 310 305 299 291 283 275 267 259 251 241 230 218 207 198 193 189 187 188 191 195 199 200 200 201 202 201 199 194 188 182 177 175 174 176 179 181 183 186 188 189 189 189 188 187 185 183 181 180 179 177 176 175 175 175 175 176
331 330 330 329 329 328 327 326 326 327 329 331 331 331 331 331 331 333 335 338 342 344 345 342 337 331 323 314 307 301 295 289 280 269 253 234 204 170 147 135 128 127 128 131 135 137 142 148 155 162 169 175 176 175 176 177 176 173 168 164 162 162 163 166 169 171 173 175 176 177 177 177 176 175 175 175 174 174 173 172 172 172 172 173 174 175
332 332 332 331 330 328 327 328 330 333 337 338 338 338 340 342 345 348 350 350 350 347 342 337 331 324 316 308 298 290 280 263 222 180 157 143 132 124 117 113 112 114 119 122 125 127 130 134 140 146 150 155 156 155 154 156 157 155 153 151 152 153 155 158 160 163 164 165 166 167 167 167 167 167 167 168 169 169 169 169 169 170 171 172 173 173
Height
2857 2855 2855 2855 2854 2852 2850 2851 2851 2849 2847 2847 2847 2846 2845 2844 2843 2843 2843 2842 2842 2841 2841 2840 2840 2839 2839 2838 2838 2837 2837 2837 2837 2837 2836 2836 2835 2835 2835 2836 2837 2839 2840 2841 2842 2842 2842 2842 2842 2842 2842 2842 2843 2843 2843 2843 2843 2844 2844 2844 2845 2846 2846 2847 2847 2848 2848 2849 2850 2851 2852 2853 2855 2856 2857 2858 2859 2860 2862 2863 2864 2866 2867 2869 2871 2872
2852 2850 2849 2849 2848 2846 2844 2845 2845 2844 2841 2840 2840 2840 2839 2838 2837 2837 2838 2837 2837 2837 2836 2835 2835 2834 2834 2833 2833 2832 2832 2832 2831 2831 2831 2831 2830 2830 2830 2830 2831 2832 2834 2835 2836 2837 2837 2838 2838 2838 2838 2838 2838 2839 2839 2839 2839 2839 2839 2840 2840 2841 2842 2842 2843 2843 2844 2845 2846 2847 2848 2849 2850 2852 2852 2853 2854 2856 2857 2858 2859 2861 2862 2864 2866 2868
2847 2845 2844 2843 2842 2841 2839 2838 2839 2838 2837 2835 2834 2834 2833 2832 2832 2832 2832 2832 2832 2831 2831 2830 2829 2829 2828 2828 2828 2827 2827 2826 2825 2825 2825 2825 2825 2825 2825 2824 2825 2826 2827 2829 2830 2832 2832 2833 2833 2833 2833 2833 2834 2834 2835 2835 2835 2835 2835 2835 2836 2836 2837 2837 2838 2839 2840 2841 2842 2843 2844 2845 2846 2847 2848 2850 2850 2851 2852 2853 2854 2856 2857 2859 2861 2863
2842 2840 2838 2837 2837 2836 2834 2833 2832 2832 2831 2829 2828 2827 2827 2826 2826 2825 2826 2826 2825 2825 2825 2824 2824 2823 2823 2823 2822 2822 2822 2821 2820 2819 2819 2819 2819 2819 2819 2819 2819 2820 2821 2823 2824 2826 2827 2827 2828 2828 2829 2829 2829 2830 2830 2830 2830 2830 2831 2831 2831 2832 2832 2832 2833 2834 2835 2836 2837 2839 2840 2841 2842 2843 2844 2845 2846 2847 2848 2849 2850 2851 2852 2854 2856 2858
2837 2835 2833 2832 2831 2830 2829 2828 2827 2826 2824 2823 2822 2822 2821 2820 2820 2819 2819 2819 2819 2819 2818 2818 2818 2818 2817 2817 2817 2817 2817 2816 2815 2814 2813 2812 2812 2813 2813 2813 2814 2814 2815 2817 2818 2820 2821 2822 2823 2823 2824 2824 2824 2825 2825 2825 2826 2826 2827 2827 2827 2827 2827 2828 2829 2829 2830 2832 2833 2834 2835 2836 2837 2839 2840 2841 2842 2843 2844 2845 2846 2847 2848 2850 2852 2853
2832 2831 2829 2828 2826 2824 2823 2822 2822 2820 2819 2817 2817 2816 2815 2815 2814 2813 2813 2813 2813 2813 2812 2812 2812 2812 2812 2811 2811 2811 2811 2811 2810 2809 2808 2807 2806 2806 2807 2807 2808 2809 2810 2811 2812 2814 2815 2817 2817 2818 2819 2819 2820 2820 2820 2820 2821 2822 2822 2822 2823 2823 2823 2824 2824 2825 2826 2827 2828 2829 2831 2832 2833 2834 2835 2837 2837 2838 2839 2840 2841 2842 2843 2845 2847 2849
2827 2826 2826 2824 2822 2820 2818 2817 2816 2815 2814 2812 2811 2810 2810 2809 2808 2808 2807 2807 2807 2807 2806 2806 2806 2806 2806 2806 2805 2805 2805 2804 2804 2803 2803 2802 2801 2800 2800 2801 2802 2802 2804 2805 2806 2808 2809 2811 2812 2813 2814 2814 2815 2815 2815 2816 2816 2817 2817 2818 2818 2818 2819 2819 2820 2820 2821 2822 2823 2825 2826 2827 2829 2830 2831 2832 2833 2834 2835 2836 2837 2838 2839 2841 2842 2844
2822 2821 2821 2820 2818 2816 2814 2813 2812 2811 2810 2807 2806 2804 2803 2803 2803 2802 2802 2802 2802 2801 2800 2800 2800 2800 2800 2800 2800 2799 2799 2798 2798 2797 2797 2797 2796 2796 2795 2795 2796 2797 2798 2799 2801 2802 2803 2805 2807 2807 2808 2809 2810 2810 2810 2811 2811 2812 2812 2813 2814 2814 2814 2815 2815 2816 2817 2817 2819 2820 2822 2823 2824 2826 2827 2828 2829 2830 2831 2832 2833 2834 2835 2837 2838 2840
2819 2817 2817 2816 2815 2813 2810 2808 2808 2807 2806 2804 2802 2800 2798 2797 2797 2797 2797 2797 2797 2796 2796 2794 2794 2794 2794 2795 2794 2794 2793 2792 2792 2792 2791 2791 2791 2791 2790 2790 2791 2792 2792 2794 2795 2796 2797 2799 2800 2802 2802 2803 2804 2805 2805 2806 2807 2807 2807 2808 2809 2809 2810 2810 2811 2811 2812 2813 2814 2815 2817 2819 2820 2821 2822 2823 2824 2826 2827 2828 2829 2831 2832 2833 2834 2836
2817 2815 2813 2812 2811 2810 2807 2804 2803 2803 2803 2801 2799 2797 2796 2794 2793 2792 2792 2791 2792 2792 2792 2790 2789 2788 2788 2789 2789 2788 2787 2787 2786 2786 2786 2785 2785 2785 2785 2786 2786 2787 2787 2789 2790 2791 2792 2793 2794 2795 2797 2797 2798 2799 2800 2801 2802 2802 2802 2803 2804 2805 2805 2806 2806 2807 2807 2808 2809 2811 2812 2814 2816 2817 2818 2819 2820 2821 2822 2824 2825 2827 2828 2830 2831 2832
2813 2812 2810 2808 2807 2805 2804 2802 2799 2798 2798 2797 2795 2794 2793 2792 2791 2789 2787 2786 2787 2787 2787 2787 2786 2784 2783 2783 2783 2783 2782 2781 2781 2781 2781 2780 2780 2780 2780 2781 2781 2782 2782 2783 2785 2786 2787 2788 2789 2790 2791 2792 2793 2794 2795 2796 2797 2797 2798 2799 2800 2800 2801 2801 2802 2802 2803 2804 2805 2806 2807 2809 2811 2812 2814 2815 2816 2817 2818 2820 2821 2822 2824 2826 2827 2828
2810 2808 2806 2804 2802 2801 2800 2798 2797 2795 2794 2793 2792 2790 2790 2790 2789 2787 2785 2782 2782 2782 2782 2782 2781 2781 2780 2779 2778 2778 2777 2777 2776 2776 2775 2775 2775 2776 2776 2776 2776 2777 2777 2778 2780 2781 2782 2783 2784 2784 2785 2786 2787 2788 2790 2791 2792 2792 2793 2794 2795 2796 2797 2797 2797 2798 2799 2800 2801 2802 2803 2805 2807 2808 2809 2811 2812 2813 2814 2815 2817 2818 2820 2822 2823 2824
2807 2805 2803 2801 2799 2798 2796 2795 2793 2792 2791 2790 2789 2787 2786 2786 2786 2785 2782 2780 2779 2779 2778 2777 2776 2776 2776 2775 2775 2774 2773 2772 2772 2771 2771 2771 2771 2771 2771 2771 2771 2772 2773 2774 2775 2777 2778 2778 2779 2779 2780 2781 2782 2783 2785 2786 2787 2788 2789 2790 2791 2791 2792 2792 2793 2794 2794 2795 2797 2798 2799 2801 2802 2803 2805 2806 2807 2809 2810 2811 2813 2814 2816 2817 2819 2820
2802 2801 2799 2797 2796 2794 2793 2792 2790 2789 2788 2787 2786 2785 2783 2782 2782 2781 2779 2777 2776 2776 2775 2773 2772 2771 2771 2772 2771 2771 2770 2768 2767 2767 2767 2766 2767 2767 2767 2766 2766 2767 2768 2769 2770 2771 2772 2773 2774 2775 2776 2777 2778 2779 2780 2782 2782 2783 2784 2785 2786 2787 2787 2788 2789 2790 2791 2792 2792 2794 2795 2796 2797 2799 2801 2802 2803 2805 2806 2807 2809 2810 2812 2813 2815 2817
2799 2798 2796 2794 2792 2791 2790 2789 2788 2786 2785 2784 2783 2782 2780 2779 2779 2778 2776 2774 2773 2772 2772 2770 2768 2768 2768 2768 2768 2768 2767 2766 2764 2763 2763 2762 2762 2763 2763 2763 2762 2762 2763 2764 2765 2765 2767 2768 2769 2771 2772 2773 2774 2775 2776 2777 2778 2779 2780 2780 2781 2782 2783 2784 2785 2786 2787 2787 2789 2790 2791 2792 2793 2795 2797 2798 2799 2801 2802 2803 2805 2806 2807 2809 2811 2812
2797 2795 2793 2790 2789 2788 2787 2787 2786 2784 2781 2780 2780 2779 2777 2776 2776 2775 2774 2772 2771 2770 2769 2767 2766 2764 2764 2765 2766 2766 2765 2764 2762 2761 2760 2758 2758 2759 2760 2759 2758 2758 2759 2760 2761 2761 2762 2764 2765 2766 2767 2769 2770 2771 2772 2772 2773 2774 2775 2776 2777 2777 2778 2779 2781 2782 2782 2784 2785 2786 2787 2788 2790 2791 2792 2794 2795 2797 2798 2800 2801 2802 2804 2805 2807 2808
2793 2792 2790 2788 2787 2786 2786 2785 2783 2780 2778 2777 2777 2776 2775 2774 2773 2772 2771 2770 2768 2767 2767 2766 2765 2763 2761 2761 2762 2763 2763 2761 2759 2757 2756 2754 2754 2755 2756 2756 2754 2754 2755 2756 2757 2757 2759 2760 2761 2762 2763 2764 2765 2766 2767 2767 2768 2769 2770 2771 2772 2773 2774 2775 2777 2777 2779 2780 2781 2782 2783 2785 2786 2787 2788 2790 2791 2792 2794 2796 2797 2798 2800 2801 2803 2804
2790 2789 2788 2787 2786 2785 2784 2781 2779 2777 2776 2775 2774 2773 2772 2772 2771 2770 2769 2768 2767 2767 2765 2764 2763 2761 2758 2757 2757 2758 2760 2758 2755 2753 2751 2750 2750 2751 2752 2752 2751 2750 2750 2751 2752 2754 2755 2756 2757 2757 2758 2759 2760 2761 2762 2763 2764 2765 2766 2767 2767 2769 2770 2771 2772 2773 2775 2776 2777 2778 2780 2781 2782 2783 2785 2786 2787 2788 2790 2791 2793 2794 2796 2797 2799 2801
2788 2787 2787 2786 2784 2782 2779 2777 2776 2775 2774 2772 2771 2770 2769 2768 2767 2767 2766 2766 2766 2765 2762 2760 2758 2756 2755 2753 2753 2755 2757 2755 2752 2749 2747 2745 2745 2747 2748 2748 2747 2746 2746 2747 2748 2750 2751 2751 2752 2753 2754 2755 2756 2757 2758 2759 2759 2760 2761 2762 2763 2764 2766 2767 2768 2769 2771 2772 2773 2774 2776 2777 2778 2780 2781 2782 2783 2785 2786 2787 2789 2790 2792 2793 2795 2797
2786 2785 2784 2783 2780 2777 2774 2773 2773 2772 2771 2770 2768 2767 2766 2765 2765 2765 2765 2764 2762 2760 2758 2756 2754 2753 2752 2751 2751 2751 2753 2752 2749 2746 2743 2742 2741 2742 2744 2744 2743 2742 2742 2742 2744 2745 2746 2747 2748 2749 2750 2751 2752 2753 2754 2754 2755 2756 2757 2758 2759 2760 2762 2763 2764 2765 2767 2768 2769 2771 2772 2773 2775 2776 2777 2779 2780 2781 2782 2783 2785 2786 2787 2789 2791 2792
2783 2781 2779 2778 2776 2773 2770 2769 2769 2769 2768 2767 2766 2765 2764 2763 2764 2763 2762 2759 2757 2755 2754 2753 2751 2750 2749 2748 2747 2748 2749 2748 2746 2742 2740 2738 2737 2738 2740 2740 2739 2738 2738 2738 2740 2741 2742 2743 2744 2745 2746 2747 2748 2749 2750 2750 2751 2752 2753 2754 2755 2757 2758 2759 2760 2762 2763 2764 2766 2767 2768 2770 2771 2772 2774 2775 2776 2777 2778 2780 2781 2782 2783 2785 2787 2788
2779 2776 2774 2774 2772 2770 2767 2766 2766 2766 2765 2765 2764 2764 2762 2762 2760 2758 2756 2755 2754 2752 2751 2750 2748 2747 2747 2745 2744 2744 2745 2744 2742 2739 2737 2734 2733 2733 2736 2736 2736 2735 2735 2735 2736 2737 2738 2739 2740 2742 2742 2743 2744 2745 2745 2746 2747 2748 2749 2750 2752 2753 2754 2755 2757 2758 2759 2761 2762 2763 2764 2766 2767 2768 2770 2771 2772 2774 2775 2776 2777 2778 2779 2781 2782 2783
2774 2772 2770 2769 2768 2766 2765 2763 2763 2762 2762 2763 2762 2761 2759 2758 2757 2755 2754 2753 2751 2749 2747 2746 2745 2744 2743 2742 2742 2741 2741 2740 2739 2737 2736 2733 2730 2730 2732 2732 2733 2732 2732 2732 2732 2733 2734 2735 2736 2737 2738 2739 2740 2741 2742 2742 2743 2744 2745 2747 2748 2749 2751 2752 2753 2754 2756 2757 2758 2760 2761 2762 2763 2764 2766 2767 2768 2770 2771 2772 2773 2774 2775 2776 2777 2778
2771 2768 2767 2766 2764 2763 2762 2761 2760 2760 2761 2761 2759 2757 2756 2755 2754 2753 2752 2750 2748 2746 2744 2743 2741 2740 2739 2739 2738 2737 2737 2737 2737 2735 2732 2729 2727 2727 2728 2728 2728 2727 2727 2728 2729 2729 2730 2730 2732 2732 2734 2735 2736 2737 2738 2739 2740 2741 2742 2743 2745 2746 2747 2748 2750 2751 2752 2754 2755 2756 2757 2758 2759 2760 2762 2763 2764 2766 2767 2768 2770 2770 2771 2772 2773 2774
2768 2766 2764 2763 2762 2760 2760 2759 2759 2760 2759 2758 2756 2754 2753 2752 2751 2750 2749 2747 2745 2743 2742 2740 2738 2736 2735 2735 2734 2734 2733 2733 2731 2729 2727 2724 2723 2723 2724 2725 2725 2724 2723 2725 2726 2726 2726 2727 2727 2729 2730 2732 2733 2734 2735 2735 2737 2737 2739 2740 2741 2742 2744 2745 2746 2748 2749 2750 2752 2753 2754 2755 2755 2756 2757 2759 2760 2762 2763 2764 2766 2766 2767 2768 2769 2770
2766 2764 2762 2761 2759 2758 2758 2758 2758 2757 2756 2755 2753 2752 2750 2749 2749 2748 2746 2744 2742 2741 2739 2737 2735 2733 2732 2731 2730 2730 2729 2729 2727 2725 2723 2722 2720 2719 2721 2722 2722 2721 2720 2721 2722 2722 2723 2723 2724 2726 2727 2728 2729 2730 2731 2732 2733 2734 2736 2737 2738 2739 2741 2742 2743 2744 2746 2747 2748 2749 2750 2751 2752 2752 2754 2755 2756 2758 2759 2760 2762 2762 2763 2764 2766 2767
2763 2761 2759 2758 2757 2756 2755 2755 2754 2753 2752 2751 2750 2749 2748 2748 2747 2745 2742 2741 2739 2738 2736 2734 2732 2730 2729 2728 2727 2726 2726 2725 2723 2722 2721 2719 2717 2716 2717 2718 2718 2718 2717 2717 2718 2719 2720 2720 2722 2723 2724 2725 2726 2727 2728 2729 2730 2732 2732 2734 2735 2736 2737 2739 2740 2741 2742 2743 2744 2746 2747 2747 2748 2749 2750 2752 2753 2754 2755 2757 2758 2759 2760 2762 2764 2766
2760 2758 2756 2755 2753 2752 2752 2751 2750 2749 2749 2748 2747 2746 2746 2746 2744 2742 2739 2737 2736 2735 2733 2731 2729 2727 2725 2724 2723 2722 2722 2721 2720 2718 2717 2716 2714 2714 2714 2715 2715 2715 2715 2714 2715 2716 2717 2718 2719 2720 2721 2722 2723 2724 2725 2726 2727 2728 2729 2731 2732 2733 2734 2735 2737 2738 2739 2740 2741 2742 2743 2744 2745 2746 2747 2748 2750 2751 2752 2753 2755 2756 2757 2759 2761 2763
2756 2754 2753 2752 2750 2749 2748 2747 2747 2746 2745 2745 2744 2743 2743 2743 2741 2739 2736 2735 2734 2732 2730 2728 2727 2725 2722 2721 2719 2718 2718 2717 2717 2715 2714 2713 2712 2711 2712 2712 2712 2712 2712 2711 2711 2712 2713 2715 2716 2717 2718 2719 2720 2721 2722 2723 2724 2725 2727 2728 2729 2730 2731 2732 2733 2735 2736 2737 2738 2739 2740 2741 2742 2743 2744 2746 2747 2748 2749 2750 2752 2753 2755 2756 2758 2760
2752 2751 2749 2748 2747 2746 2745 2744 2744 2743 2742 2742 2741 2740 2740 2739 2738 2736 2733 2732 2731 2729 2727 2725 2723 2722 2720 2718 2716 2714 2714 2714 2714 2713 2711 2710 2709 2709 2709 2709 2709 2709 2709 2708 2708 2708 2710 2712 2713 2714 2715 2716 2717 2718 2719 2720 2721 2722 2723 2725 2726 2727 2728 2729 2731 2732 2733 2734 2735 2736 2737 2738 2739 2740 2742 2743 2744 2745 2746 2748 2749 2750 2752 2753 2755 2757
2749 2747 2746 2745 2744 2743 2742 2741 2741 2740 2739 2738 2738 2737 2737 2736 2734 2732 2731 2729 2728 2726 2724 2722 2720 2719 2717 2715 2713 2711 2710 2711 2711 2710 2708 2707 2706 2706 2706 2706 2706 2706 2707 2707 2706 2706 2706 2708 2709 2711 2712 2713 2715 2716 2717 2717 2718 2719 2721 2722 2723 2725 2726 2727 2728 2729 2730 2731 2732 2733 2734 2736 2737 2738 2739 2740 2742 2743 2744 2745 2747 2748 2749 2751 2753 2755
2746 2745 2743 2742 2742 2740 2739 2738 2737 2737 2736 2735 2735 2734 2733 2732 2731 2729 2728 2727 2725 2723 2721 2719 2717 2716 2714 2713 2711 2708 2707 2707 2707 2707 2706 2704 2703 2703 2703 2703 2703 2703 2704 2705 2705 2704 2704 2704 2706 2707 2709 2711 2712 2713 2714 2715 2716 2717 2718 2719 2721 2722 2723 2724 2725 2727 2727 2728 2729 2731 2732 2733 2734 2736 2737 2738 2739 2741 2742 2743 2744 2746 2747 2748 2751 2753
2743 2742 2741 2740 2739 2738 2737 2736 2735 2734 2733 2733 2732 2731 2730 2729 2727 2726 2725 2723 2722 2721 2718 2716 2714 2712 2711 2709 2707 2706 2704 2704 2704 2704 2703 2702 2700 2700 2700 2700 2700 2700 2701 2701 2702 2702 2702 2702 2703 2704 2706 2708 2709 2710 2711 2712 2713 2714 2716 2717 2718 2719 2720 2722 2722 2723 2724 2726 2727 2728 2730 2731 2732 2734 2735 2736 2737 2739 2740 2741 2742 2743 2745 2747 2748 2751
2741 2740 2739 2738 2737 2736 2734 2734 2733 2732 2731 2730 2729 2728 2727 2725 2724 2723 2722 2720 2719 2717 2715 2713 2711 2709 2707 2706 2704 2703 2702 2702 2701 2701 2700 2699 2698 2697 2697 2697 2697 2697 2698 2698 2699 2699 2699 2700 2701 2702 2703 2705 2706 2707 2708 2710 2710 2712 2713 2714 2716 2717 2718 2719 2720 2721 2722 2723 2724 2726 2727 2729 2730 2732 2733 2734 2736 2737 2738 2739 2740 2742 2743 2745 2747 2749
2739 2738 2737 2736 2734 2733 2732 2731 2730 2729 2728 2727 2726 2725 2723 2722 2721 2720 2718 2717 2716 2714 2712 2710 2708 2707 2705 2702 2701 2699 2699 2699 2698 2698 2697 2696 2695 2694 2694 2694 2694 2695 2695 2695 2696 2696 2697 2697 2698 2699 2700 2702 2703 2705 2706 2707 2708 2709 2711 2712 2713 2715 2716 2716 2717 2718 2719 2720 2722 2723 2724 2726 2727 2729 2731 2732 2733 2735 2736 2737 2739 2740 2742 2744 2746 2748
2737 2736 2735 2733 2732 2731 2730 2729 2728 2727 2725 2724 2723 2721 2720 2719 2717 2716 2715 2713 2712 2710 2709 2707 2706 2704 2702 2700 2698 2697 2696 2696 2696 2695 2694 2693 2693 2692 2691 2691 2692 2692 2692 2692 2693 2693 2694 2695 2696 2697 2698 2699 2701 2702 2704 2705 2706 2707 2709 2710 2712 2713 2714 2714 2715 2716 2717 2718 2719 2720 2722 2723 2724 2726 2728 2730 2732 2733 2735 2736 2738 2740 2742 2744 2747 2749
2735 2734 2732 2731 2730 2729 2727 2726 2725 2723 2722 2721 2719 2718 2717 2716 2714 2713 2712 2710 2708 2707 2705 2704 2702 2701 2699 2697 2696 2694 2693 2692 2692 2692 2692 2691 2690 2689 2688 2688 2689 2689 2690 2690 2690 2691 2691 2692 2693 2694 2695 2697 2698 2700 2702 2703 2704 2705 2707 2708 2709 2711 2712 2712 2713 2714 2715 2716 2717 2718 2719 2721 2722 2724 2726 2728 2730 2732 2733 2735 2737 2739 2742 2744 2746 2749
2733 2732 2730 2729 2728 2726 2725 2723 2722 2721 2719 2718 2717 2715 2714 2713 2712 2710 2708 2706 2705 2703 2701 2700 2698 2697 2696 2695 2693 2692 2690 2689 2689 2689 2689 2688 2688 2687 2686 2686 2686 2687 2687 2687 2687 2688 2688 2689 2690 2691 2693 2694 2696 2697 2699 2700 2702 2702 2704 2706 2707 2708 2709 2710 2711 2712 2713 2714 2715 2717 2718 2719 2721 2723 2725 2727 2728 2730 2732 2734 2736 2738 2740 2742 2744 2747
2731 2730 2728 2727 2726 2724 2722 2721 2719 2718 2717 2715 2714 2712 2711 2710 2708 2707 2705 2702 2701 2699 2697 2696 2695 2693 2692 2691 2690 2689 2687 2687 2686 2686 2686 2686 2685 2684 2683 2683 2683 2684 2685 2685 2685 2686 2686 2687 2688 2689 2690 2692 2693 2695 2697 2698 2699 2700 2702 2703 2705 2706 2707 2708 2709 2710 2711 2712 2713 2715 2716 2717 2719 2721 2723 2725 2727 2729 2730 2732 2734 2736 2737 2740 2742 2744
2729 2727 2726 2725 2723 2722 2720 2719 2717 2716 2714 2713 2712 2710 2708 2707 2705 2703 2701 2699 2697 2696 2694 2692 2691 2690 2689 2687 2687 2686 2685 2684 2683 2683 2683 2682 2682 2682 2681 2681 2681 2682 2682 2683 2683 2683 2684 2685 2685 2687 2688 2689 2691 2693 2694 2696 2697 2698 2699 2701 2702 2703 2704 2706 2707 2708 2709 2711 2712 2713 2715 2716 2718 2720 2722 2724 2726 2727 2729 2731 2732 2734 2736 2737 2739 2741
2727 2725 2724 2722 2721 2720 2718 2717 2715 2713 2712 2710 2708 2707 2705 2703 2701 2699 2697 2695 2693 2692 2691 2689 2688 2687 2686 2685 2684 2683 2682 2681 2680 2680 2680 2679 2679 2679 2678 2678 2679 2679 2680 2680 2681 2682 2682 2682 2683 2684 2686 2687 2689 2690 2692 2693 2694 2696 2697 2698 2699 2701 2702 2703 2705 2706 2708 2709 2711 2712 2713 2715 2717 2718 2720 2722 2724 2726 2727 2729 2731 2732 2734 2736 2737 2739
2725 2723 2722 2720 2719 2717 2716 2714 2712 2711 2709 2707 2706 2704 2702 2700 2697 2695 2692 2691 2689 2688 2687 2686 2684 2683 2682 2682 2681 2680 2679 2678 2677 2677 2677 2677 2677 2676 2676 2677 2677 2677 2677 2678 2679 2679 2680 2681 2681 2682 2683 2685 2686 2688 2689 2691 2692 2693 2694 2696 2697 2699 2701 2702 2703 2705 2706 2707 2709 2711 2712 2713 2715 2717 2719 2721 2722 2724 2725 2727 2728 2730 2732 2734 2736 2737
2724 2722 2720 2718 2717 2715 2713 2711 2710 2708 2706 2704 2702 2701 2699 2697 2694 2692 2689 2687 2686 2685 2684 2682 2682 2680 2679 2679 2678 2677 2676 2675 2675 2675 2674 2674 2674 2674 2674 2674 2675 2675 2675 2676 2676 2677 2677 2678 2679 2680 2681 2682 2684 2685 2687 2688 2689 2690 2692 2694 2695 2697 2698 2700 2701 2702 2704 2706 2707 2709 2710 2712 2713 2715 2717 2719 2721 2722 2723 2725 2727 2728 2730 2732 2734 2736
2722 2720 2718 2716 2713 2712 2710 2708 2707 2705 2703 2701 2699 2697 2696 2693 2691 2689 2687 2684 2683 2682 2681 2680 2679 2677 2677 2676 2675 2674 2673 2673 2672 2672 2672 2672 2672 2672 2672 2672 2672 2672 2673 2673 2674 2674 2675 2676 2677 2678 2679 2680 2682 2683 2684 2685 2687 2688 2690 2691 2693 2694 2695 2697 2699 2701 2702 2704 2706 2708 2709 2710 2712 2713 2715 2717 2719 2721 2722 2724 2725 2727 2729 2731 2733 2735
2719 2717 2715 2713 2711 2709 2707 2705 2703 2702 2700 2698 2696 2694 2692 2691 2688 2686 2684 2682 2681 2680 2679 2677 2676 2675 2674 2673 2672 2672 2671 2671 2671 2671 2670 2670 2670 2670 2670 2670 2671 2671 2671 2672 2672 2672 2673 2674 2675 2676 2677 2678 2679 2680 2681 2682 2684 2686 2687 2689 2690 2692 2694 2696 2698 2699 2701 2703 2705 2707 2708 2709 2710 2712 2714 2716 2718 2719 2721 2723 2724 2726 2728 2730 2732 2734
2717 2715 2712 2710 2708 2706 2704 2702 2700 2698 2697 2695 2693 2692 2689 2687 2685 2683 2682 2680 2679 2678 2677 2676 2674 2673 2672 2671 2671 2670 2670 2669 2669 2669 2669 2669 2669 2669 2669 2669 2669 2669 2669 2670 2670 2671 2672 2672 2673 2674 2674 2676 2677 2678 2679 2680 2682 2683 2685 2687 2689 2691 2693 2695 2697 2699 2701 2702 2704 2705 2707 2708 2709 2711 2713 2715 2717 2718 2720 2722 2723 2725 2727 2729 2731 2733
2714 2712 2710 2707 2706 2703 2702 2699 2697 2696 2694 2692 2690 2689 2687 2685 2683 2681 2680 2678 2677 2676 2675 2674 2672 2672 2671 2670 2669 2669 2668 2668 2668 2668 2668 2668 2668 2668 2668 2668 2668 2668 2669 2669 2669 2670 2670 2671 2672 2672 2673 2674 2675 2676 2677 2678 2680 2682 2683 2685 2687 2689 2691 2693 2696 2698 2700 2702 2703 2704 2706 2707 2708 2710 2712 2714 2716 2717 2719 2721 2722 2724 2727 2728 2730 2732
2712 2710 2707 2705 2703 2701 2699 2697 2695 2693 2691 2689 2687 2686 2685 2683 2681 2679 2678 2677 2676 2674 2673 2672 2671 2670 2670 2669 2668 2668 2668 2668 2667 2667 2667 2667 2667 2667 2667 2667 2667 2668 2668 2668 2669 2669 2670 2670 2671 2672 2672 2673 2674 2675 2676 2677 2679 2681 2682 2684 2686 2688 2690 2692 2695 2697 2699 2701 2702 2704 2705 2707 2708 2710 2711 2713 2715 2717 2718 2720 2722 2724 2726 2728 2730 2732
2710 2707 2705 2703 2700 2698 2696 2694 2692 2691 2689 2687 2685 2684 2682 2681 2679 2678 2677 2675 2674 2673 2672 2671 2670 2670 2670 2669 2669 2668 2668 2667 2667 2667 2667 2667 2667 2667 2667 2667 2667 2667 2668 2668 2669 2669 2670 2670 2671 2672 2672 2673 2673 2674 2675 2677 2678 2680 2682 2683 2686 2687 2690 2692 2694 2697 2698 2700 2702 2703 2705 2707 2708 2710 2711 2713 2714 2716 2718 2720 2722 2724 2726 2728 2730 2732
2708 2706 2703 2701 2698 2696 2694 2692 2691 2689 2687 2685 2683 2682 2681 2679 2678 2677 2676 2674 2673 2672 2671 2671 2670 2670 2670 2669 2669 2668 2668 2668 2667 2667 2667 2667 2667 2667 2667 2667 2667 2668 2668 2668 2669 2670 2670 2671 2672 2672 2673 2673 2674 2674 2675 2677 2678 2680 2681 2683 2686 2687 2690 2692 2694 2696 2698 2700 2702 2703 2705 2707 2708 2710 2712 2713 2715 2717 2718 2721 2723 2725 2727 2728 2730 2732
2706 2703 2701 2699 2697 2695 2693 2691 2689 2687 2686 2684 2682 2681 2679 2678 2677 2676 2675 2674 2672 2672 2671 2671 2671 2670 2670 2670 2669 2669 2668 2668 2667 2667 2667 2667 2667 2667 2667 2668 2668 2668 2669 2669 2670 2671 2671 2672 2673 2673 2674 2674 2675 2675 2676 2677 2679 2680 2682 2684 2686 2688 2690 2692 2694 2696 2698 2700 2702 2703 2705 2707 2708 2710 2712 2714 2716 2717 2719 2721 2723 2725 2727 2729 2731 2732